GW0206 Weather Reports


time (UTC)temp
F
wind
direction
speed
knots
gust
knots
rain 1hr
in
rain 24hr
in
rain mn
in
humidity
%
barometer
mb
20260505170004 69 104 8.7 17.4 0.00 0.00 0.00 65 1007.8
20260505165503 68 100 6.1 21.7 0.00 0.00 0.00 65 1007.9
20260505165004 68 46 12.2 21.7 0.00 0.00 0.00 65 1008.0
20260505164508 68 73 8.7 20.9 0.00 0.00 0.00 64 1008.0
20260505164004 68 37 5.2 18.2 0.00 0.00 0.00 64 1008.0
20260505163504 68 115 8.7 18.2 0.00 0.00 0.00 65 1007.9
20260505163011 68 67 12.2 18.2 0.00 0.00 0.00 63 1007.9
20260505162507 69 89 10.4 17.4 0.00 0.00 0.00 63 1008.0
20260505162002 69 101 7.8 14.8 0.00 0.00 0.00 63 1007.9
20260505161506 70 85 8.7 14.8 0.00 0.00 0.00 63 1007.8
20260505161009 69 58 8.7 17.4 0.00 0.00 0.00 64 1007.8
20260505160505 69 9 9.6 17.4 0.00 0.00 0.00 63 1007.6
20260505153012 68 89 7.8 16.5 0.00 0.00 0.00 68 1007.6
20260505152504 68 74 7.8 15.6 0.00 0.00 0.00 67 1007.5
20260505152005 68 83 9.6 15.6 0.00 0.00 0.00 66 1007.6
20260505151516 68 63 8.7 20.0 0.00 0.00 0.00 69 1007.4
20260505151007 68 53 7.8 20.0 0.00 0.00 0.00 67 1007.5
20260505150503 67 26 10.4 15.6 0.00 0.00 0.00 69 1007.4
20260505140505 64 33 7.8 15.6 0.00 0.00 0.00 74 1007.5
20260505125007 60 61 3.5 8.7 0.00 0.00 0.00 77 1007.1
20260505124533 60 327 3.5 7.8 0.00 0.00 0.00 76 1007.0
20260505124008 60 42 3.5 7.8 0.00 0.00 0.00 77 1006.9
20260505123507 60 348 4.3 7.8 0.00 0.00 0.00 77 1006.8
20260505123022 60 14 1.7 7.8 0.00 0.00 0.00 76 1006.9
20260505122507 60 34 3.5 7.8 0.00 0.00 0.00 76 1006.9
20260505122010 60 34 2.6 6.1 0.00 0.00 0.00 76 1006.8
20260505121519 60 17 1.7 6.1 0.00 0.00 0.00 76 1006.7
20260505121007 60 24 3.5 7.8 0.00 0.00 0.00 76 1006.7
20260505120504 60 16 2.6 7.8 0.00 0.00 0.00 75 1006.9
20260505120012 60 31 2.6 7.0 0.00 0.00 0.00 75 1006.9
20260505115506 60 32 2.6 7.0 0.00 0.00 0.00 75 1006.9
20260505115006 61 42 2.6 6.1 0.00 0.00 0.00 74 1007.0
20260505114512 61 44 2.6 7.8 0.00 0.00 0.00 74 1007.0
20260505114007 61 57 2.6 7.8 0.00 0.00 0.00 74 1007.0
20260505113507 61 23 3.5 7.8 0.00 0.00 0.00 73 1007.0
20260505113023 61 11 1.7 10.4 0.00 0.00 0.00 73 1006.8
20260505112506 61 58 5.2 10.4 0.00 0.00 0.00 73 1006.8
20260505112006 61 52 4.3 13.9 0.00 0.00 0.00 73 1006.7
20260505111526 61 42 7.8 13.9 0.00 0.00 0.00 73 1006.7
20260505111015 61 76 5.2 11.3 0.00 0.00 0.00 73 1006.7
20260505110506 61 58 5.2 11.3 0.00 0.00 0.00 72 1006.6
20260505102009 61 67 7.8 17.4 0.00 0.00 0.00 73 1006.2
20260505101528 61 39 7.8 17.4 0.00 0.00 0.00 73 1006.2
20260505101007 60 24 5.2 12.2 0.00 0.00 0.00 74 1006.2
20260505100508 60 45 5.2 14.8 0.00 0.00 0.00 74 1006.2
20260505100026 61 61 7.0 14.8 0.00 0.00 0.00 73 1006.1
20260505095506 61 80 4.3 11.3 0.00 0.00 0.00 73 1006.2
20260505095010 61 50 5.2 15.6 0.00 0.00 0.00 73 1006.1
20260505094531 61 46 7.0 15.6 0.00 0.00 0.00 73 1005.9
20260505094010 61 66 6.1 13.0 0.00 0.00 0.00 72 1006.0
20260505093507 61 51 7.0 17.4 0.00 0.00 0.00 72 1005.9
20260505093020 61 65 9.6 17.4 0.00 0.00 0.00 72 1005.8
20260505092508 61 59 5.2 12.2 0.00 0.00 0.00 72 1005.7
20260505092005 62 49 6.1 12.2 0.00 0.00 0.00 72 1005.7
20260505091503 62 42 5.2 13.0 0.00 0.00 0.00 72 1005.7
20260505091004 62 69 6.1 16.5 0.00 0.00 0.00 71 1005.6
20260505090503 62 49 7.8 20.0 0.00 0.00 0.00 71 1005.4
20260505090005 62 66 8.7 20.0 0.00 0.00 0.00 71 1005.4
20260505085504 62 70 10.4 17.4 0.00 0.00 0.00 71 1005.4
20260505085003 62 63 7.8 20.0 0.00 0.00 0.00 72 1005.3
20260505084525 62 78 9.6 20.0 0.00 0.00 0.00 72 1005.3
20260505084002 62 71 6.1 20.0 0.00 0.00 0.00 72 1005.3
20260505083503 62 61 9.6 20.0 0.00 0.00 0.00 71 1005.3
20260505083007 62 71 9.6 17.4 0.00 0.00 0.00 73 1005.3
20260505082505 62 55 8.7 17.4 0.00 0.00 0.00 73 1005.2
20260505082002 62 19 7.0 13.9 0.00 0.00 0.00 73 1005.1
20260505081515 62 53 7.8 13.9 0.00 0.00 0.00 73 1005.1
20260505081004 62 46 6.1 12.2 0.00 0.00 0.00 73 1005.0
20260505080503 62 57 6.1 12.2 0.00 0.00 0.00 73 1004.9
20260505080009 62 62 7.0 12.2 0.00 0.00 0.00 73 1004.9
20260505075504 62 33 7.0 12.2 0.00 0.00 0.00 73 1004.9
20260505075003 62 19 6.1 12.2 0.00 0.00 0.00 73 1004.9
20260505074508 62 57 7.8 12.2 0.00 0.00 0.00 71 1004.8
20260505074004 62 49 7.0 13.0 0.00 0.00 0.00 71 1004.7
20260505073503 62 50 6.1 13.0 0.00 0.00 0.00 70 1004.7
20260505073008 62 42 5.2 13.0 0.00 0.00 0.00 70 1004.6
20260505072506 62 78 7.0 13.0 0.00 0.00 0.00 70 1004.6
20260505072008 62 32 7.0 13.0 0.00 0.00 0.00 70 1004.6
20260505071508 62 82 5.2 11.3 0.00 0.00 0.00 70 1004.6
20260505071004 62 69 7.0 11.3 0.00 0.00 0.00 70 1004.6
20260505070504 63 77 6.1 13.9 0.00 0.00 0.00 70 1004.6
20260505070012 63 37 7.0 13.9 0.00 0.00 0.00 70 1004.6
20260505065506 63 48 7.8 12.2 0.00 0.00 0.00 70 1004.7
20260505065004 63 63 6.1 12.2 0.00 0.00 0.00 69 1004.7
20260505064512 63 53 7.0 12.2 0.00 0.00 0.00 69 1004.8
20260505064009 63 54 6.1 13.0 0.00 0.00 0.00 70 1004.8
20260505063504 63 52 5.2 13.9 0.00 0.00 0.00 69 1004.9
20260505063010 63 76 7.8 13.9 0.00 0.00 0.00 69 1004.9
20260505062505 63 59 7.0 13.9 0.00 0.00 0.00 69 1004.9
20260505062005 63 19 7.0 15.6 0.00 0.00 0.00 69 1004.9
20260505061518 63 71 5.2 15.6 0.00 0.00 0.00 70 1005.0
20260505061004 63 65 7.8 13.0 0.00 0.00 0.00 69 1005.0
20260505060507 63 24 7.0 13.0 0.00 0.00 0.00 69 1005.1
20260505060010 63 36 5.2 12.2 0.00 0.00 0.00 69 1005.1
20260505055503 64 22 4.3 12.2 0.00 0.00 0.00 69 1005.1
20260505055005 64 57 7.0 13.0 0.00 0.00 0.00 69 1005.2
20260505054517 64 15 8.7 13.0 0.00 0.00 0.00 68 1005.4
20260505054010 64 38 6.1 13.0 0.00 0.00 0.00 68 1005.4
20260505053502 64 22 7.0 13.0 0.00 0.00 0.00 68 1005.5
20260505053012 64 40 6.1 12.2 0.00 0.00 0.00 68 1005.5
20260505052503 64 63 5.2 13.0 0.00 0.00 0.00 68 1005.6
20260505052006 64 32 5.2 13.0 0.00 0.00 0.00 68 1005.5
20260505051517 64 51 7.0 13.9 0.00 0.00 0.00 68 1005.6
20260505051003 64 39 6.1 13.9 0.00 0.00 0.00 68 1005.7
20260505050506 64 40 5.2 13.9 0.00 0.00 0.00 68 1005.7
20260505041518 63 13 7.0 12.2 0.00 0.00 0.00 70 1005.8
20260505041006 63 17 5.2 12.2 0.00 0.00 0.00 69 1005.8
20260505040508 63 29 6.1 13.0 0.00 0.00 0.00 69 1005.9
20260505040016 63 23 5.2 13.0 0.00 0.00 0.00 69 1005.9
20260505035507 63 49 5.2 10.4 0.00 0.00 0.00 69 1006.0
20260505035006 63 47 4.3 11.3 0.00 0.00 0.00 69 1006.1
20260505034524 63 78 6.1 12.2 0.00 0.00 0.00 69 1006.0
20260505034008 63 44 5.2 14.8 0.00 0.00 0.00 69 1006.0
20260505033511 62 22 5.2 14.8 0.00 0.00 0.00 70 1005.9
20260505033016 62 67 6.1 12.2 0.00 0.00 0.00 70 1005.9
20260505032507 62 355 3.5 7.8 0.00 0.00 0.00 70 1005.9
20260505032008 62 19 2.6 8.7 0.00 0.00 0.00 70 1005.8
20260505031518 62 41 3.5 8.7 0.00 0.00 0.00 69 1005.9
20260505031007 62 26 2.6 9.6 0.00 0.00 0.00 69 1005.9
20260505030506 62 24 5.2 9.6 0.00 0.00 0.00 69 1006.0
20260505030024 62 32 3.5 9.6 0.00 0.00 0.00 69 1006.1
20260505025507 63 49 4.3 9.6 0.00 0.00 0.00 68 1006.1
20260505025007 63 54 4.3 9.6 0.00 0.00 0.00 68 1006.1
20260505024521 63 53 3.5 9.6 0.00 0.00 0.00 68 1006.1
20260505024002 63 30 3.5 9.6 0.00 0.00 0.00 68 1006.0
20260505023501 63 34 4.3 9.6 0.00 0.00 0.00 68 1006.1
20260505023005 63 49 4.3 9.6 0.00 0.00 0.00 68 1006.1
20260505022502 63 355 3.5 10.4 0.00 0.00 0.00 68 1006.1
20260505022004 63 11 5.2 10.4 0.00 0.00 0.00 68 1006.3
20260505021504 63 28 2.6 7.8 0.00 0.00 0.00 67 1006.2
20260505021003 63 15 2.6 7.8 0.00 0.00 0.00 67 1006.3
20260505020504 63 5 2.6 7.8 0.00 0.00 0.00 67 1006.3
20260505020012 63 17 3.5 9.6 0.00 0.00 0.00 67 1006.2
20260505015504 64 15 4.3 9.6 0.00 0.00 0.00 66 1006.3
20260505015004 64 22 4.3 9.6 0.00 0.00 0.00 66 1006.2
20260505014513 64 42 2.6 12.2 0.00 0.00 0.00 66 1006.2
20260505014002 64 55 5.2 12.2 0.00 0.00 0.00 65 1006.2
20260505013502 64 51 4.3 12.2 0.00 0.00 0.00 65 1006.2
20260505013004 64 28 4.3 12.2 0.00 0.00 0.00 65 1006.1
20260505012502 65 57 7.0 12.2 0.00 0.00 0.00 64 1006.1
20260505012003 65 55 4.3 12.2 0.00 0.00 0.00 64 1006.1
20260505011504 65 66 5.2 13.0 0.00 0.00 0.00 64 1006.1
20260505011004 65 24 7.8 13.0 0.00 0.00 0.00 63 1006.0
20260505010503 65 49 3.5 11.3 0.00 0.00 0.00 62 1005.8
20260505010012 66 75 6.1 13.0 0.00 0.00 0.00 62 1005.7
20260505005504 66 78 5.2 15.6 0.00 0.00 0.00 62 1005.7
20260505005004 66 39 7.8 16.5 0.00 0.00 0.00 62 1005.7
20260505004503 66 58 9.6 16.5 0.00 0.00 0.00 61 1005.7
20260505004003 66 63 7.0 17.4 0.00 0.00 0.00 61 1005.7
20260505003503 67 28 7.0 17.4 0.00 0.00 0.00 61 1005.6
20260505003012 67 38 7.8 16.5 0.00 0.00 0.00 60 1005.5
20260505002503 67 63 7.0 13.9 0.00 0.00 0.00 60 1005.4
20260505002005 67 65 8.7 14.8 0.00 0.00 0.00 60 1005.4
20260505001508 67 13 7.8 14.8 0.00 0.00 0.00 60 1005.2
20260505001005 67 32 6.1 13.9 0.00 0.00 0.00 60 1005.2
20260505000505 67 22 7.0 12.2 0.00 0.00 0.00 59 1005.2
20260505000014 67 22 7.8 12.2 0.00 0.00 0.00 59 1005.1
20260504235503 68 15 6.1 13.9 0.00 0.00 0.00 58 1005.1
20260504235003 68 14 6.1 15.6 0.00 0.00 0.00 58 1005.0
20260504234504 68 70 7.0 15.6 0.00 0.00 0.00 57 1005.0
20260504234003 69 20 7.0 16.5 0.00 0.00 0.00 57 1005.0
20260504233503 69 57 8.7 16.5 0.00 0.00 0.00 57 1005.0
20260504233005 69 72 7.0 15.6 0.00 0.00 0.00 56 1005.0
20260504232503 70 55 7.0 14.8 0.00 0.00 0.00 56 1005.0
20260504232004 70 61 8.7 13.9 0.00 0.00 0.00 55 1005.1
20260504231520 70 71 7.8 14.8 0.00 0.00 0.00 55 1005.0
20260504231003 70 61 8.7 19.1 0.00 0.00 0.00 56 1005.0
20260504230503 70 68 8.7 20.0 0.00 0.00 0.00 56 1005.1
20260504230006 70 25 7.8 21.7 0.00 0.00 0.00 56 1005.0
20260504225502 70 65 12.2 21.7 0.00 0.00 0.00 56 1005.1
20260504225003 70 61 8.7 20.9 0.00 0.00 0.00 57 1005.1
20260504224510 70 5 12.2 20.9 0.00 0.00 0.00 57 1005.2
20260504224004 70 69 8.7 19.1 0.00 0.00 0.00 57 1005.2
20260504223504 71 49 8.7 19.1 0.00 0.00 0.00 56 1005.3
20260504223011 71 26 8.7 19.1 0.00 0.00 0.00 56 1005.3
20260504222504 70 55 11.3 20.0 0.00 0.00 0.00 56 1005.2
20260504222005 70 94 7.8 20.0 0.00 0.00 0.00 57 1005.3
20260504221508 70 53 11.3 20.0 0.00 0.00 0.00 55 1005.4
20260504221006 71 63 10.4 20.9 0.00 0.00 0.00 55 1005.5
20260504220507 72 56 13.0 20.9 0.00 0.00 0.00 54 1005.5
20260504220004 72 76 9.6 16.5 0.00 0.00 0.00 55 1005.5
20260504215505 72 41 10.4 20.9 0.00 0.00 0.00 56 1005.4
20260504215004 72 53 7.0 20.9 0.00 0.00 0.00 56 1005.4
20260504214508 72 79 8.7 16.5 0.00 0.00 0.00 55 1005.4
20260504214005 72 49 7.0 16.5 0.00 0.00 0.00 55 1005.4
20260504213503 73 82 9.6 16.5 0.00 0.00 0.00 52 1005.4
20260504213007 73 67 6.1 17.4 0.00 0.00 0.00 53 1005.4
20260504212506 73 52 8.7 19.1 0.00 0.00 0.00 54 1005.3
20260504212004 73 73 11.3 19.1 0.00 0.00 0.00 54 1005.5
20260504211513 73 56 9.6 19.1 0.00 0.00 0.00 55 1005.5
20260504211003 72 63 7.8 19.1 0.00 0.00 0.00 56 1005.5
20260504210503 72 27 8.7 19.1 0.00 0.00 0.00 56 1005.6
20260504210018 72 59 9.6 22.6 0.00 0.00 0.00 57 1005.5
20260504205507 71 62 11.3 22.6 0.00 0.00 0.00 55 1005.6
20260504205006 72 74 12.2 20.9 0.00 0.00 0.00 53 1005.7
20260504204509 72 37 9.6 18.2 0.00 0.00 0.00 57 1005.8
20260504204007 71 32 8.7 16.5 0.00 0.00 0.00 55 1005.6
20260504203507 71 28 7.0 15.6 0.00 0.00 0.00 55 1005.6
20260504203028 72 5 4.3 14.8 0.00 0.00 0.00 55 1005.6
20260504202502 72 69 8.7 17.4 0.00 0.00 0.00 54 1005.8
20260504202001 72 57 9.6 17.4 0.00 0.00 0.00 53 1005.9
20260504201508 73 31 8.7 23.5 0.00 0.00 0.00 53 1005.8
20260504201003 73 75 10.4 23.5 0.00 0.00 0.00 53 1005.8
20260504200504 73 62 7.0 15.6 0.00 0.00 0.00 53 1005.9
20260504200016 73 55 8.7 16.5 0.00 0.00 0.00 53 1006.0
20260504195504 73 42 7.8 16.5 0.00 0.00 0.00 55 1006.2
20260504195004 72 62 7.0 15.6 0.00 0.00 0.00 54 1006.1
20260504194522 72 57 7.0 22.6 0.00 0.00 0.00 56 1006.2
20260504194005 71 16 9.6 22.6 0.00 0.00 0.00 54 1006.2
20260504193506 71 45 7.0 20.0 0.00 0.00 0.00 55 1006.3
20260504193017 71 53 8.7 20.0 0.00 0.00 0.00 55 1006.6
20260504192506 71 67 7.8 19.1 0.00 0.00 0.00 57 1006.6
20260504192013 71 19 8.7 19.1 0.00 0.00 0.00 56 1006.7
20260504191513 71 41 9.6 20.0 0.00 0.00 0.00 56 1006.8
20260504191002 70 59 9.6 20.9 0.00 0.00 0.00 55 1006.7
20260504190503 70 39 9.6 20.9 0.00 0.00 0.00 55 1006.8
20260504190011 70 51 10.4 20.0 0.00 0.00 0.00 54 1006.9
20260504185504 70 360 7.8 20.0 0.00 0.00 0.00 55 1006.8
20260504185007 70 24 10.4 21.7 0.00 0.00 0.00 55 1006.9
20260504184523 70 46 6.1 21.7 0.00 0.00 0.00 59 1007.0
20260504184011 70 32 11.3 19.1 0.00 0.00 0.00 55 1007.0
20260504183508 70 48 9.6 17.4 0.00 0.00 0.00 54 1007.0
20260504183020 70 53 8.7 17.4 0.00 0.00 0.00 56 1007.1
20260504182512 70 103 9.6 16.5 0.00 0.00 0.00 56 1007.0
20260504182003 69 38 8.7 16.5 0.00 0.00 0.00 58 1007.0
20260504181517 70 51 8.7 15.6 0.00 0.00 0.00 56 1007.2
20260504181012 69 85 7.8 15.6 0.00 0.00 0.00 57 1007.1
20260504180513 69 67 8.7 15.6 0.00 0.00 0.00 56 1007.2
20260504180014 69 5 7.0 14.8 0.00 0.00 0.00 56 1007.2
20260504175509 69 71 8.7 14.8 0.00 0.00 0.00 56 1007.5
20260504175005 69 69 9.6 15.6 0.00 0.00 0.00 56 1007.4
20260504174513 69 339 10.4 15.6 0.00 0.00 0.00 57 1007.6
20260504174003 68 59 7.0 18.2 0.00 0.00 0.00 54 1007.6
20260504173502 68 92 10.4 18.2 0.00 0.00 0.00 57 1007.7
20260504173005 68 15 6.1 15.6 0.00 0.00 0.00 54 1007.7
20260504172502 68 24 6.1 14.8 0.00 0.00 0.00 58 1007.7
20260504172003 68 28 7.0 13.9 0.00 0.00 0.00 54 1007.8
20260504171505 68 355 7.0 15.6 0.00 0.00 0.00 55 1007.8
20260504171003 68 44 7.8 15.6 0.00 0.00 0.00 55 1007.8
20260504170503 67 65 7.8 16.5 0.00 0.00 0.00 59 1007.9